Location: ????????
(60.5616°N, 46.8254°E)
Time: 00:01:32
(UTC+00:00)

Cosmos 2016 Rocket - Pass Details

Date: 18 February 2020
Orbit: 948 x 999 km, 83.0° (Epoch: 09 April)

Event Time Altitude Azimuth Distance (km) Brightness Sun altitude
Rises 14:43:48 0° 161° (SSE) 3,612 6.9 -7.4°
Reaches altitude 10° 14:46:24 10° 154° (SSE) 2,672 6.1 -7.7°
Maximum altitude 14:52:00 40° 87° (E) 1,384 4.4 -8.4°
Drops below altitude 10° 14:57:39 10° 21° (NNE) 2,704 6.1 -9.1°
Sets 15:00:19 0° 14° (NNE) 3,661 6.8 -9.4°
